Regional Weather Roundup
Issued by NWS Cleveland, OH

Home | Current Version | Previous Version | Graphics & Text | Print | Product List | Glossary On
Versions: 1 2 3 4 5 6 7 8 9 10 11 12 13 14 15 16 17 18 19 20 21 22 23 24 25 26 27 28 29 30 31 32 33 34 35 36 37 38 39 40 41 42 43 44 45 46 47 48 49 50
000
ASUS41 KCLE 302310
RWRCLE
OHIO REGIONAL WEATHER ROUNDUP
NATIONAL WEATHER SERVICE WILMINGTON, OH
700 PM EDT MON MAR 30 2015

NOTE: "FAIR" INDICATES FEW OR NO CLOUDS BELOW 12,000 FEET WITH NO
SIGNIFICANT WEATHER AND/OR OBSTRUCTIONS TO VISIBILITY.

OHZ001>008-015>018-024>027-034-035-043-044-310000-
   NORTHWEST OHIO

CITY           SKY/WX    TMP DP  RH WIND       PRES   REMARKS
DEFIANCE       CLOUDY    56  28  34 NW9       29.96F
FINDLAY        CLOUDY    55  27  34 W14       29.96R
TOLEDO EXPRESS CLOUDY    53  25  33 W17G26    29.94R
TOLEDO EXEC    MOCLDY    55  23  28 W18G30    29.95R
LIMA           CLOUDY    55  30  38 W16       29.98R
$$

OHZ009>014-019>023-028>033-038-089-310000-
   NORTHEAST OHIO

CITY           SKY/WX    TMP DP  RH WIND       PRES   REMARKS
CLE-HOPKINS    PTCLDY    52  25  35 W16G25    29.94R
CLE-LAKEFRONT  PTCLDY    45  29  53 W15       29.90S
CUY CO. ARPT   MOCLDY    54  25  32 W16G28    29.91R
LORAIN-ELYRIA  MOCLDY    50  27  40 NW13      29.93R
ASHTABULA      MOCLDY    49  24  37 W21G31    29.87S
AKRON-CANTON   MOCLDY    51  25  36 W15G26    29.93R
WOOSTER        MOCLDY    49  28  44 W14       29.94S
MANSFIELD      MOCLDY    51  25  36 W14G24    29.95S
YOUNGSTOWN     MOCLDY    50  24  36 W18G25    29.89R
$$

OHZ042-051>053-060>062-070>072-077>081-310000-
  SOUTHWEST OHIO

CITY           SKY/WX    TMP DP  RH WIND       PRES   REMARKS
CINC-COVINGTON PTSUNNY   57  29  34 W15       30.05S
CINC-LUNKEN    PTSUNNY   57  29  34 W12       30.05F
HAMILTON       PTSUNNY   58  29  33 W9G17     30.05F
DAYTON         CLOUDY    56  31  38 W15       30.03S
WRIGHT-PAT AFB CLOUDY    56  29  35 W16       30.02S
DAYTON GENERAL PTSUNNY   56  29  35 W12       30.03S
WILMINGTON     CLOUDY    54  26  34 W12       30.03S
$$

OHZ036-037-039>041-045>050-054>059-063>069-073>076-082>088-310000-
  CENTRAL AND SOUTHEAST OHIO

CITY           SKY/WX    TMP DP  RH WIND       PRES   REMARKS
COLUMBUS       CLOUDY    54  27  35 W20       30.00S
OSU AIRPORT    CLOUDY    53  27  36 W13       29.99S
BOLTON FIELD   PTCLDY    54  28  37 W12G17    30.01S
RICKENBACK AFB MOCLDY    53  28  37 W13G20    30.01S
NEWARK         MOCLDY    53  27  36 W12       29.99S
MARION         MOCLDY    54  25  32 W12G23    29.98R
LANCASTER      MOCLDY    54  27  35 W15       30.02R
ZANESVILLE     MOCLDY    52  23  32 W14G24    29.99R
NEW PHILLY     MOCLDY    54  26  34 W15       29.97R
$$



USA.gov is the U.S. government's official web portal to all federal, state and local government web resources and services.